Reflectivity
-20 -20 -20 -20 -9 -20 -20 -20 -18 9 10 26 31 21 27 16 16 27 23 28 23 15 9 -6 30 19 17 29 27 24 -5 -0 4 19 26 12 -4 -9 -20 -20 -20 -20 -20
-20 -20 -20 -20 -20 -20 -20 -20 7 15 32 31 27 31 20 17 24 25 26 25 28 18 23 15 25 12 39 24 29 18 17 23 15 30 30 -1 -4 -6 -0 -12 -20 -20 -20
-19 -20 -20 -20 -20 -20 -10 -9 3 24 36 43 38 31 9 21 10 29 27 28 27 20 20 18 23 42 25 33 24 20 16 31 29 28 12 12 10 7 1 -20 -20 -20 -20
-19 -20 -20 -20 -20 -6 1 -4 -12 26 37 44 43 37 24 28 24 26 32 26 25 25 37 25 37 32 34 27 10 -10 28 21 20 -7 10 6 7 5 -20 -20 -20 -20 -20
-20 -20 -20 -20 -13 4 14 27 15 28 26 29 37 37 35 23 20 20 22 39 31 21 31 39 41 32 27 3 -20 5 21 2 6 22 10 11 3 -20 -20 -20 -20 -20 -20
-20 -13 -20 -20 -11 18 34 30 25 26 33 25 19 24 18 23 28 25 22 20 22 35 39 40 33 26 -15 2 -4 11 -17 1 12 13 10 1 -20 -20 -20 -20 -20 -20 -20
-14 11 -7 -20 3 -1 30 32 34 33 38 34 34 26 23 28 29 28 29 24 33 38 39 35 27 3 22 12 -7 15 2 -6 -20 -2 -7 -20 -20 -20 -20 -20 -20 -20 -20
0 -12 -7 -20 8 24 37 33 28 31 30 30 25 20 27 32 31 30 30 34 37 36 38 18 -9 25 8 14 5 -19 -10 0 -4 -20 -20 -20 -20 -20 -20 -20 -20 -20 -20
-20 -2 -20 -4 12 37 29 26 24 30 32 33 31 31 33 36 37 33 33 34 36 27 24 32 26 7 10 5 -2 7 3 -18 -20 -20 -20 -20 -20 -20 -20 -20 -20 -20 -20
-20 -20 -20 -4 26 29 24 25 23 33 31 33 31 37 33 27 36 37 38 29 22 24 28 18 23 18 6 8 -15 -20 -20 -20 -20 -20 -20 -20 -20 -20 -20 -20 -20 -20 -20
-20 -20 -19 12 24 34 27 31 31 32 33 33 26 30 33 35 33 36 36 31 21 18 23 19 10 1 -20 -20 -20 -20 -20 -20 -20 -20 -20 -20 -20 -20 -20 -20 -20 -20 -20
-15 -20 2 13 21 35 30 25 19 21 23 21 22 22 24 27 30 33 32 28 21 11 22 17 9 -17 -20 -20 -20 -20 -20 -20 -20 -20 -20 -20 -20 -20 -20 -20 -20 -20 -20
-19 -7 12 10 20 30 32 8 15 17 30 18 13 10 15 17 26 27 23 16 11 8 10 -9 -18 -20 -20 -20 -20 -20 -20 -20 -20 -20 -20 -20 -20 -20 -20 -20 -20 -20 -20
18 -0 7 5 17 26 30 32 31 32 25 14 -1 -1 1 7 8 12 12 3 7 -14 -20 -15 -20 -20 -20 -20 -20 -20 -20 -20 -20 -20 -20 -20 -20 -20 -20 -20 -20 -20 -20
-4 8 -6 -1 18 18 29 28 30 31 28 16 13 5 7 14 11 9 -0 -20 -19 -20 -20 -18 -19 -18 -19 -16 -19 -20 -20 -20 -20 -20 -20 -20 -20 -20 -20 -20 -10 1 2
25 4 16 10 30 32 26 23 33 32 33 30 33 26 21 0 -20 -20 -20 -20 -20 -12 7 2 -6 -19 -20 -20 -19 -20 -20 -20 -16 -20 -20 -20 -13 -12 -20 -14 2 3 -5
20 22 34 31 32 29 24 21 16 23 28 24 18 24 6 -1 -20 -20 -5 -20 -15 -4 -6 -20 -20 -20 -20 -20 -19 -19 -20 -20 -10 -19 -20 -15 1 -8 -4 -2 -2 -20 -20
10 16 17 26 29 30 30 20 -1 5 1 0 16 15 -6 -5 -7 -11 -16 -10 8 -3 -19 -20 -20 -20 -20 -20 -9 -12 -7 -1 7 -2 3 3 4 2 -8 -14 -20 -20 -20
-11 -8 -12 1 14 17 9 9 23 24 11 6 1 1 -11 -6 -4 2 -7 -19 -19 -18 -20 -18 -20 -20 -20 -20 -19 -10 -4 1 -2 1 7 6 4 6 -1 -16 -20 -20 -20
-20 -17 -20 -15 -14 -7 -12 -12 -7 6 4 -15 -17 -17 -5 -11 -4 -1 -2 -12 -9 -18 -20 -19 -20 -20 -13 -8 1 -8 -14 5 10 12 7 -5 2 5 -6 -20 -20 -20 -20
-20 -19 -1 -20 -20 -17 -9 -9 5 2 -7 2 -9 -13 -20 -20 -14 -16 -12 -5 -6 -18 -20 -14 -18 -7 -19 -20 -7 7 10 8 4 8 3 -4 -18 -20 -20 -20 -20 -20 -20
-19 -20 -20 -19 -20 -15 -17 -15 -5 -7 -20 -20 -10 -19 -16 -12 -18 -9 -14 -7 -4 -19 -12 -12 -3 2 3 -2 6 3 -18 -19 -19 -10 -8 -20 -20 -20 -20 -20 -20 -20 -20
-19 -10 -20 -20 -18 5 -14 -20 -18 -20 -20 -20 -20 -6 -13 -11 3 -1 -20 -17 -7 -3 -8 -10 3 -4 -10 -16 -20 -20 -20 -20 -20 -20 -20 -15 -20 -20 -20 -20 -20 -20 -20
-17 -20 -20 -17 -6 -18 -16 -10 -20 2 -6 -18 -4 0 -7 -10 -12 -15 -13 -13 -12 -13 -11 -6 -7 -20 -19 -20 -20 -20 -20 -0 -20 -20 -20 -20 -20 -20 -20 -20 -20 -20 -20
-17 -5 -6 -20 -20 -19 -19 -19 -16 -10 -17 -19 0 -5 -14 -19 -12 -8 -12 -19 -20 -20 -18 -0 -9 -20 -20 -20 -20 -20 -20 -20 -20 -20 -20 -20 -20 -20 -20 -20 -20 -20 -20
-10 -7 -2 -4 -5 -4 -10 -11 -4 -11 -3 -1 -0 -6 0 -4 -15 -17 -10 -11 -4 -15 -20 -20 -20 -20 -20 -20 -20 -20 -20 -20 -20 -20 -20 -20 -20 -20 -20 -20 -20 -20 -20
Wind_Speed
12 13 15 14 15 17 16 19 22 21 22 20 21 19 18 18 17 17 15 14 16 12 12 13 12 10 7 5 5 3 7 6 7 7 8 10 11 10 8 11 10 6 6
19 12 14 15 16 15 16 19 22 18 16 18 19 19 19 18 18 19 19 17 16 15 14 14 11 7 7 7 6 4 4 5 10 15 10 10 11 10 8 11 11 10 7
17 13 14 15 14 14 16 18 5 4 9 14 18 20 20 19 18 17 17 18 16 15 14 15 12 11 8 9 6 5 3 5 9 10 10 5 7 7 5 3 4 10 8
18 15 13 14 14 11 12 8 3 5 9 11 13 14 17 17 17 17 18 17 16 14 12 10 9 10 11 9 7 8 6 9 10 10 10 8 7 6 3 5 3 4 6
20 10 10 13 12 8 6 6 4 5 9 12 15 14 14 15 14 18 17 17 16 16 14 15 10 10 13 9 7 8 7 9 9 10 10 9 7 10 10 6 5 3 2
20 7 7 11 9 5 4 4 2 3 7 9 11 13 13 9 21 23 20 16 15 15 14 11 8 14 12 13 14 13 5 9 10 10 9 11 11 9 5 8 7 5 2
18 4 5 8 5 3 1 1 2 4 6 8 9 11 11 12 24 24 22 13 12 12 13 11 10 8 13 10 14 15 14 15 7 6 11 10 10 10 6 6 5 5 4
14 11 5 4 1 6 4 3 5 5 7 8 10 11 14 13 24 21 19 11 10 11 11 9 11 10 9 11 9 9 9 9 6 3 7 6 6 7 6 5 6 7 6
15 13 10 4 2 3 5 5 5 8 8 9 10 14 16 14 23 21 17 13 13 10 9 9 9 10 16 16 11 11 10 8 12 19 20 19 17 14 6 3 4 7 2
14 14 13 4 6 4 5 5 3 6 8 9 10 11 19 15 22 22 15 9 12 9 8 9 14 10 18 15 11 11 10 7 7 6 6 10 10 9 11 6 1 4 4
14 13 9 2 5 6 6 5 6 8 9 10 12 10 13 15 16 20 19 10 11 11 8 7 7 18 19 18 15 8 8 10 8 8 7 5 4 3 3 4 5 3 3
13 12 2 4 3 5 8 6 8 9 9 10 11 10 8 10 16 19 19 14 15 11 9 8 10 20 18 16 8 19 20 10 7 7 6 4 4 4 3 5 5 5 6
10 4 3 4 3 5 7 9 7 8 9 8 8 9 8 7 7 17 20 19 16 11 8 12 18 18 17 10 20 20 10 6 6 6 5 3 3 6 6 5 5 6 6
7 4 3 4 5 5 4 4 6 7 7 8 9 9 9 8 8 7 10 8 13 11 17 13 11 10 7 9 11 9 3 3 5 5 5 5 7 6 4 4 4 4 5
5 4 4 4 5 6 4 3 3 3 5 7 7 9 10 8 8 11 11 8 9 12 13 10 9 8 8 7 6 5 3 4 4 3 3 6 7 6 5 5 6 5 3
5 4 3 3 4 6 5 6 12 11 12 12 13 10 7 12 20 19 18 20 23 20 10 9 9 8 8 7 7 6 3 5 3 2 4 6 5 5 5 5 3 3 2
4 4 2 4 3 6 5 5 6 6 12 13 16 16 15 20 22 21 21 23 22 15 8 8 8 8 7 8 7 6 5 4 4 2 3 4 5 4 3 4 2 1 2
5 6 4 3 3 4 4 5 5 7 6 4 10 12 18 22 22 23 24 18 11 5 5 7 7 7 6 7 7 6 5 5 4 2 3 4 3 2 3 2 3 3 2
5 4 4 3 4 4 4 5 6 6 6 6 6 8 14 22 21 21 20 7 7 5 5 5 5 4 4 5 5 5 5 5 5 4 3 3 3 3 2 3 2 5 4
4 5 5 3 3 4 4 4 5 6 6 5 5 7 8 12 8 8 5 5 5 4 5 5 5 5 5 5 5 5 5 5 5 4 1 3 3 3 2 3 3 4 2
3 4 4 3 4 3 4 5 5 5 5 5 6 7 11 7 8 5 6 5 5 5 5 5 5 5 5 5 5 5 5 5 5 5 5 3 4 3 2 1 2 3 4
3 3 3 4 4 5 5 5 5 6 7 7 8 9 8 7 7 5 6 5 5 5 4 4 4 4 4 5 5 6 6 5 6 6 3 4 4 3 3 2 2 2 2
3 5 4 4 4 6 6 6 7 7 7 7 7 6 5 6 6 6 6 6 5 5 5 4 4 4 3 4 4 5 5 4 4 4 4 5 4 3 3 2 2 2 2
4 4 4 4 5 6 6 6 7 9 8 7 7 6 6 6 6 6 6 6 5 5 4 4 3 5 4 3 3 2 3 3 4 4 6 5 3 4 3 3 3 1 3
5 4 4 4 5 6 6 7 7 7 7 6 6 6 6 6 6 6 5 5 5 5 5 4 4 7 7 6 5 6 7 8 6 6 4 5 5 5 3 2 2 3 3
5 5 5 4 5 6 6 6 7 7 6 6 6 6 6 6 6 6 5 5 5 5 6 5 6 7 7 7 8 8 8 8 6 7 4 4 3 3 4 5 5 3 3
Wind_Direction
300 294 296 291 279 283 282 286 283 234 199 192 191 178 173 171 172 171 162 168 164 155 148 144 159 177 153 153 105 88 156 149 134 135 146 150 142 148 137 138 140 143 129
302 296 298 295 288 287 287 289 282 235 199 183 173 168 165 165 168 168 159 165 169 168 168 154 144 144 141 116 88 126 89 104 140 148 153 149 137 148 165 164 163 147 140
305 303 310 312 293 285 293 287 274 201 182 162 171 166 160 164 161 163 163 156 151 150 146 143 135 146 143 110 129 115 86 85 143 149 146 138 138 134 130 123 128 142 150
306 308 314 313 295 283 291 289 235 155 150 148 168 156 153 154 154 150 151 140 134 128 128 128 140 145 149 138 138 131 122 152 144 148 142 146 141 145 141 158 169 169 146
305 303 311 308 281 271 285 297 278 167 156 152 149 147 152 152 151 149 143 136 136 136 144 150 164 167 135 138 133 138 149 152 148 151 147 155 167 168 174 175 169 146 84
299 282 297 298 269 258 283 260 250 125 137 141 147 146 149 148 149 143 141 138 136 143 148 159 144 112 106 110 96 85 125 150 156 165 159 172 175 175 165 166 152 137 161
298 281 272 274 252 208 218 156 119 105 123 124 133 131 133 131 141 133 135 131 130 142 144 148 120 110 98 107 100 89 73 61 64 174 166 173 157 173 146 159 142 164 133
315 309 273 256 202 103 81 82 87 91 118 122 120 122 122 126 122 123 119 123 131 134 127 131 123 125 131 132 126 98 76 59 36 46 133 131 125 132 153 161 150 104 79
309 318 286 204 131 140 154 146 128 122 120 118 121 125 127 130 133 131 127 124 116 113 105 118 131 144 147 145 123 111 95 80 77 86 92 89 79 71 47 123 125 129 124
315 308 291 173 158 157 130 133 113 122 120 118 115 124 129 125 124 124 119 123 113 112 116 133 149 156 154 142 130 136 124 133 118 85 65 68 71 74 67 68 102 149 130
310 305 280 185 140 136 119 127 121 120 118 114 108 117 124 126 125 124 125 130 135 138 142 137 126 132 134 138 133 137 142 137 127 111 103 98 88 76 69 64 55 42 124
305 299 265 112 128 133 131 130 124 124 120 119 119 113 121 129 131 134 139 138 146 135 136 128 133 133 134 133 121 133 140 132 129 122 124 134 129 113 96 74 61 60 44
317 337 55 85 103 124 140 136 134 134 131 132 127 122 123 124 132 140 139 141 134 124 124 132 135 133 128 113 133 136 139 140 139 133 140 143 130 122 112 105 91 94 84
326 344 45 87 100 96 108 125 140 142 141 138 130 129 132 138 137 129 137 125 114 112 122 131 136 129 116 122 132 141 142 143 143 146 145 135 128 134 139 144 140 153 121
353 13 41 65 82 85 72 84 106 90 134 141 137 137 136 142 146 139 139 125 124 125 126 130 136 151 138 142 143 158 147 136 133 144 133 140 143 152 166 176 171 174 163
6 18 33 65 85 91 86 77 81 94 106 109 118 130 129 136 146 145 140 133 132 132 134 149 157 163 155 153 158 165 143 147 150 145 135 149 152 159 182 182 179 146 175
26 25 47 61 64 84 104 107 104 82 99 118 127 132 139 148 150 148 143 139 138 139 148 161 160 163 160 159 161 161 165 155 140 148 141 147 159 172 179 143 145 145 173
27 37 45 57 70 88 95 115 114 112 108 100 118 129 140 146 150 151 143 136 147 158 153 159 156 161 159 154 159 158 161 151 144 146 142 152 140 137 138 141 166 154 185
37 31 26 51 54 66 104 106 96 101 106 105 107 113 140 140 142 144 146 141 147 143 142 138 137 129 142 149 138 143 141 150 160 160 151 133 133 125 157 158 183 175 174
45 67 71 48 49 68 75 77 91 100 107 111 114 123 126 127 130 139 126 123 128 128 140 135 132 131 130 135 152 152 141 146 140 133 127 139 146 144 171 175 174 147 137
53 42 43 63 81 81 89 95 95 98 109 111 113 118 128 122 128 136 127 144 151 133 132 137 139 146 153 151 143 141 151 145 147 168 191 158 140 143 161 188 163 135 147
58 51 48 55 59 74 81 87 100 104 102 109 118 127 139 127 136 149 139 139 134 129 123 133 136 143 159 156 154 166 172 169 180 177 153 142 144 143 152 158 147 141 156
66 83 74 84 91 88 89 94 96 98 100 109 119 127 100 110 131 133 130 130 132 133 136 159 144 122 124 135 166 193 180 174 157 152 151 142 139 137 134 154 148 108 84
55 74 78 66 80 87 87 88 94 100 108 114 124 121 116 116 118 118 119 123 129 134 140 131 120 134 126 112 96 82 89 86 96 118 124 136 132 122 108 116 127 146 127
83 86 85 83 84 88 94 97 99 103 107 110 109 108 111 112 112 119 123 120 117 117 111 116 111 114 110 105 97 97 104 99 98 103 90 100 116 129 135 132 116 110 111
75 81 87 95 95 93 94 96 95 98 103 107 106 106 109 108 111 116 115 117 118 108 101 95 101 108 115 102 104 102 97 99 98 100 99 115 122 98 96 106 104 101 115